Regional Weather Roundup
Issued by NWS

Home | Current Version | Previous Version | Text Only | Print | Product List | Glossary Off
Versions: 1 2 3 4 5 6 7 8 9 10 11 12 13 14 15 16 17 18 19 20 21 22 23 24 25 26 27 28 29 30 31 32 33 34 35 36 37 38 39 40 41 42 43 44 45 46 47 48 49 50

000
ASUS43 KDTX 290610
RWRMI
MICHIGAN HOURLY REGIONAL WEATHER ROUNDUP
NATIONAL WEATHER SERVICE DETROIT/PONTIAC MI
ISSUED BY NATIONAL WEATHER SERVICE GRAND RAPIDS MI
200 AM EDT THU JUN 29 2017

NOTE: "FAIR" INDICATES FEW OR NO CLOUDS BELOW 12,000 FEET WITH NO
SIGNIFICANT WEATHER AND/OR OBSTRUCTION TO VISIBILITY.

MIZ047>049-052>055-059>063-066>070-074>076-081>083-290700-
SOUTHEAST LOWER MICHIGAN

CITY           SKY/WX    TMP DP  RH WIND       PRES   REMARKS
ADRIAN         MOCLDY    71  54  54 SW12      29.93S
6HR MIN TEMP:  71; 6HR MAX TEMP:  75;

ALMA           LGT RAIN  62  60  93 S7G18     29.82F
ANN ARBOR      CLOUDY    69  55  60 SE7       29.92S
BAD AXE        CLOUDY    62  58  87 S13G20    29.87F
6HR MIN TEMP:  60; 6HR MAX TEMP:  64;

DETROIT CITY   LGT RAIN  71  56  58 SW13      29.93F
6HR MIN TEMP:  71; 6HR MAX TEMP:  74; 6HR PCP: TRACE;

DETROIT        LGT RAIN  72  55  55 S12       29.93S
6HR MIN TEMP:  71; 6HR MAX TEMP:  74; 6HR PCP: TRACE;

FLINT          CLOUDY    68  56  65 S12       29.86F
6HR MIN TEMP:  63; 6HR MAX TEMP:  72; 6HR PCP: TRACE;

GROSSE ILE     CLOUDY    71  58  63 SW12      29.94R
6HR MIN TEMP:  70; 6HR MAX TEMP:  74;

HILLSDALE      CLOUDY    68  52  56 S9G16     29.91F
HOWELL         CLOUDY    67  53  60 S8        29.88F
6HR MIN TEMP:  66; 6HR MAX TEMP:  71;


CITY           SKY/WX    TMP DP  RH WIND       PRES   REMARKS
JACKSON        CLOUDY    71  53  52 S13       29.89F
6HR MIN TEMP:  69; 6HR MAX TEMP:  73;

LANSING        CLOUDY    68  57  68 S15       29.87F
6HR MIN TEMP:  66; 6HR MAX TEMP:  72; 6HR PCP:  0.04;

MASON          CLOUDY    70  55  59 S6        29.88F
MONROE         CLOUDY    73  53  50 SW10      29.93R
6HR MIN TEMP:  71; 6HR MAX TEMP:  74;

MT. CLEMENS    CLOUDY    71  56  58 S9        29.91S
6HR MIN TEMP:  67; 6HR MAX TEMP:  71; 6HR PCP: TRACE;

PONTIAC        LGT RAIN  69  56  62 S8G20     29.90F
6HR MIN TEMP:  69; 6HR MAX TEMP:  73; 6HR PCP: TRACE;

PORT HOPE        N/A     62  59  90 SE9       29.84F
6HR MIN TEMP:  61; 6HR MAX TEMP:  65; 6HR PCP:  0.11;

PORT HURON     CLOUDY    63  57  82 S5        29.93S
TRI CITIES     LGT RAIN  64  60  87 S18       29.80F
6HR MIN TEMP:  63; 6HR MAX TEMP:  71; 6HR PCP:  0.24;

YPSILANTI      MOCLDY    74  55  51 S12       29.93S
6HR MIN TEMP:  71; 6HR MAX TEMP:  75; 6HR PCP: TRACE;

$$
MIZ043>046-050>051-056>058-064>065-071>073-077>080-290700-
SOUTHWEST LOWER MICHIGAN

CITY           SKY/WX    TMP DP  RH WIND       PRES   REMARKS
BATTLE CREEK   LGT RAIN  65  63  93 W8        29.92R
6HR MIN TEMP:  65; 6HR MAX TEMP:  74; 6HR PCP:  0.04;

BENTON HARBOR  TSTM      65  63  93 SW7       29.91R VSB 1/2
6HR MIN TEMP:  65; 6HR MAX TEMP:  79; 6HR PCP:  0.49;

BIG RAPIDS     LGT RAIN  63  60  91 S9G18     29.76F
6HR MIN TEMP:  60; 6HR MAX TEMP:  63; 6HR PCP:  0.48;

COLDWATER      CLOUDY    72  52  50 SW8       29.90F
6HR MIN TEMP:  71; 6HR MAX TEMP:  74;

HOLLAND        HVY RAIN  65  62  90 S12       29.87F FOG
6HR MIN TEMP:  65; 6HR MAX TEMP:  70; 6HR PCP:  0.74;

GRAND RAPIDS   LGT RAIN  64  64 100 S12       29.85F
6HR MIN TEMP:  63; 6HR MAX TEMP:  67; 6HR PCP:  0.49;

KALAMAZOO      LGT RAIN  66  61  84 W6        29.92R
6HR MIN TEMP:  66; 6HR MAX TEMP:  75; 6HR PCP:  0.05;

MARSHALL       LGT RAIN  70  57  62 W12G17    29.91R
6HR MIN TEMP:  70; 6HR MAX TEMP:  74;

MOUNT PLEASANT LGT RAIN  63  59  87 S9G17     29.77F
6HR MIN TEMP:  61; 6HR MAX TEMP:  68; 6HR PCP:  0.43;

MUSKEGON       LGT RAIN  65  63  93 S12       29.83R
6HR MIN TEMP:  64; 6HR MAX TEMP:  67; 6HR PCP:  1.33;

STURGIS        LGT RAIN  71  57  61 SW9G16    29.89S
6HR MIN TEMP:  70; 6HR MAX TEMP:  75;

$$
MIZ016>042-290700-
NORTHERN LOWER MICHIGAN

CITY           SKY/WX    TMP DP  RH WIND       PRES   REMARKS
ALPENA         CLOUDY    63  59  87 S13G22    29.78F
6HR MIN TEMP:  62; 6HR MAX TEMP:  64; 6HR PCP:  0.04;

BEAVER ISLAND  HVY RAIN  63  61  94 S7        29.69F
BELLAIRE       DRIZZLE   62  59  90 S6        29.73F
6HR MIN TEMP:  62; 6HR MAX TEMP:  64;

CADILLAC       CLOUDY    61  60  97 S9        29.76S
CHARLEVOIX     LGT RAIN  64  61  91 S7        29.73F
6HR MIN TEMP:  62; 6HR MAX TEMP:  64;

GAYLORD        LGT RAIN  61  57  87 S13       29.76S
6HR MIN TEMP:  61; 6HR MAX TEMP:  63; 6HR PCP:  0.03;

HOUGHTON LAKE  LGT RAIN  61  57  87 S12       29.78S
6HR MIN TEMP:  60; 6HR MAX TEMP:  64; 6HR PCP:  0.06;

MANISTEE       MOCLDY    63  62  97 VRB6      29.72F
OSCODA         RAIN      63  58  83 S17G23    29.79F
6HR MIN TEMP:  62; 6HR MAX TEMP:  65; 6HR PCP:  0.01;

PELLSTON       LGT RAIN  63  59  87 S6        29.73F
6HR MIN TEMP:  62; 6HR MAX TEMP:  64; 6HR PCP:  0.11;

TRAVERSE CITY  CLOUDY    65  60  84 SW7       29.71S
6HR MIN TEMP:  65; 6HR MAX TEMP:  68; 6HR PCP:  0.02;

LUDINGTON      MOCLDY    65  62  91 S13G25    29.73S
6HR MIN TEMP:  63; 6HR MAX TEMP:  65; 6HR PCP:  0.27;

$$
MIZ007>008-015-290700-
EASTERN UPPER MICHIGAN

CITY           SKY/WX    TMP DP  RH WIND       PRES   REMARKS
KINROSS        LGT RAIN  60  59  96 SE12      29.75F
6HR MIN TEMP:  60; 6HR MAX TEMP:  61;

MACKINAC ISLAN HVY RAIN  60  60 100 E6        29.73F
6HR MIN TEMP:  60; 6HR MAX TEMP:  61; 6HR PCP:  0.77;

NEWBERRY       LGT RAIN  60  59  97 SE9       29.70F
6HR MIN TEMP:  59; 6HR MAX TEMP:  60; 6HR PCP:  0.39;

S. S. MARIE    LGT RAIN  61  60  97 SE6       29.75F FOG
6HR MIN TEMP:  61; 6HR MAX TEMP:  62; 6HR PCP:  0.23;

$$
MIZ004>006-011>014-085-290700-
CENTRAL UPPER MICHIGAN

CITY           SKY/WX    TMP DP  RH WIND       PRES   REMARKS
MANISTIQUE     CLOUDY    58  55  90 S6        29.67F
6HR MIN TEMP:  58; 6HR MAX TEMP:  59; 6HR PCP:  0.56;

ESCANABA       LGT RAIN  61  61 100 S5        29.63F
6HR MIN TEMP:  61; 6HR MAX TEMP:  62; 6HR PCP:  0.36;

MENOMINEE      CLOUDY    64  62  93 S5        29.63F
6HR MIN TEMP:  62; 6HR MAX TEMP:  64; 6HR PCP: TRACE;

SAWYER-GWINN   FOG       59  58  97 S9        29.64F VSB 1/2
6HR MIN TEMP:  59; 6HR MAX TEMP:  60; 6HR PCP:  0.09;

$$
MIZ001>003-009>011-084-290700-
WESTERN UPPER MICHIGAN

CITY           SKY/WX    TMP DP  RH WIND       PRES   REMARKS
IRON MOUNTAIN  FOG       61  59  93 SE5       29.61F VSB 1/4
6HR MIN TEMP:  61; 6HR MAX TEMP:  62; 6HR PCP:  0.04;

HOUGHTON       FOG       58  56  93 E9        29.59F VSB 1/2
6HR MIN TEMP:  58; 6HR MAX TEMP:  61; 6HR PCP:  0.31;

COPPER HARBOR    N/A     58  57  97 VRB6      29.61F
6HR MIN TEMP:  58; 6HR MAX TEMP:  61; 6HR PCP:  0.02;

IRONWOOD       LGT RAIN  67  64  90 S6        29.54S
6HR MIN TEMP:  65; 6HR MAX TEMP:  67;

$$

ABBREVIATIONS USED IN REMARKS
   TC - TEMPERATURE IN CELSIUS
  WCI - WIND CHILL INDEX
   HX - HEAT INDEX
  VSB - VISIBILITY




USA.gov is the U.S. government's official web portal to all federal, state and local government web resources and services.